STARLINK-11184, 60071

Orbit data source: Space-Track

STARLINK-11184, 60071 is a payload satellite owned by SpaceX/Seattle (US) in LEO that was launched on Wed, 19 Jun 2024 UTC via an FALCON 9 launch vehicle from the Air Force Western Test Range (AFWTR). Payload-class satellites include a variety of spacecraft equipped with specific instruments for various scientific and technological missions. These include communications satellites like Starlink; space stations such as the ISS; scientific satellites like the Hubble; Earth observation satellites from companies like Planet Labs, Umbra, and HawkEye 360; GPS; miniature CubeSats for education and research; and military/defense satellites.

Loading next visibility...
Identifier
60071, 2024-113N
Orbit
LEO
Last TLE update
1 day ago
Origin
Manufacturer
SpaceX/Seattle
Mission
Operational Commercial Communications
Bus & Motor
STARLINK V2M, Unknown motor
Mass
730 kg wet, ~700 kg dry
Launch date (UTC)
2024-06-19 (11 months ago)
Launch vehicle
FALCON 9
Launch site
Air Force Western Test Range (AFWTR)
Object type
Payload
Rocket body
Debris
Shape & HBR
Box + 2 Pan, 29 m
Radar Cross Section
33.884 m², Large (>1 m²)

Expand to show TLE details & history

TLE from 1 day ago
0 STARLINK-11184
1 60071U 24113N   25130.59178909  .00020384  00000-0  17248-3 0  9996
2 60071  53.1568 245.5976 0000731  97.1011 263.0090 15.69739555 52206
Epoch: 2025-05-10T14:12Z
Definitive object data (Epoch: 2025-05-10T14:12:10.577Z)
Latitude
-0.00002°
Longitude
163.92214°
Altitude
360.617 km
Speed
7.694 km/s
True Right ascension
16h 22m 23s
True Declination
0° 00' 00"
Sunlit
Object was in full shadow at TLE epoch
Visualization TLE readout
Latitude
-24.48084°
Longitude
-2.39657°
Altitude
366.749 km
Speed
7.689 km/s
Apparent Right ascension
07h 49m 34s
Apparent Declination
-75° 49' 37"
Sunlit
Object is in daylight
Visualization observer readout
Local Sidereal Time
04:26:45
Azimuth
167.333° S
Elevation
-30.212°
Doppler factor
1
Orbital elements
Apogee altitude
360.396 km
Perigee altitude
359.411 km
Semi-major axis
6,738.04 km
Eccentricity
0.0000731
Inclination
53.1568°
RAAN
245.5976°
Arg. of periapsis
97.1011°
True anomaly
263.00069°
Mean anomaly
263.009°
Eccentric anomaly
263.00484°
Mean motion
3.92412 °/min
BSTAR
0.00017248
Orbital period
91.74 mins
Loading maneuver chart data...
Loading SW <> Apogee altitude chart data...
Loading historical data...
Loading historical data...
Loading historical data...
Loading historical data...
Loading historical data...
Loading historical data...
Loading historical data...

STARLINK-11184 Visibility forecast

Observer location: undefined°, undefined°

Span
Click to sort rows by Start time (UTC) header in descending order
Start Az.
Max El. time (UTC)
Max El. Az.
Max El.
End time (UTC)
End Az.
4 mins2025-05-12 09:08:47.264Z184.127° SSW2025-05-12 09:10:47.264Z138.93° SSE20.884°2025-05-12 09:12:47.264Z85.338° E
4 mins2025-05-12 10:44:47.264Z280.023° WNW2025-05-12 10:45:47.264Z308.175° NW24.497°2025-05-12 10:48:47.264Z29.935° NE
|